This is the latest recevied weather packets stored in our database for station/object KI5RAB. If no packets are shown the sender has not sent any weather packets the latest 10 day(s).
| Time | Temp. | Humidity | Pressure | Rain* | Wind** | Luminosity | Snow |
|---|---|---|---|---|---|---|---|
| 1778091807 | 27.78° C | 77% | 1013.6 hPa | 0 mm | - | 631 W/m² | - |
| 1778091505 | 27.78° C | 78% | 1013.6 hPa | 0 mm | - | 683 W/m² | - |
| 1778091202 | 26.67° C | 81% | 1013.7 hPa | 0 mm | - | 358 W/m² | - |
| 1778090899 | 26.67° C | 81% | 1013.8 hPa | 0 mm | - | 268 W/m² | - |
| 1778090595 | 26.67° C | 81% | 1013.9 hPa | 0 mm | - | 190 W/m² | - |
| 1778090292 | 26.67° C | 82% | 1014 hPa | 0 mm | - | 168 W/m² | - |
| 1778089989 | 26.67° C | 82% | 1013.9 hPa | 0 mm | - | 181 W/m² | - |
| 1778089686 | 26.67° C | 81% | 1014.1 hPa | 0 mm | - | 183 W/m² | - |
| 1778089383 | 26.11° C | 82% | 1014.2 hPa | 0 mm | - | 204 W/m² | - |
| 1778089081 | 26.11° C | 81% | 1014.1 hPa | 0 mm | - | 191 W/m² | - |
| 1778088777 | 26.11° C | 82% | 1013.9 hPa | 0 mm | - | 150 W/m² | - |
| 1778088474 | 26.11° C | 82% | 1014 hPa | 0 mm | - | 120 W/m² | - |
| 1778088171 | 26.11° C | 82% | 1014 hPa | 0 mm | - | 118 W/m² | - |
| 1778087868 | 26.11° C | 82% | 1014.2 hPa | 0 mm | - | 114 W/m² | - |
| 1778087565 | 26.11° C | 83% | 1014.3 hPa | 0 mm | - | 106 W/m² | - |
| 1778087263 | 25.56° C | 84% | 1014.1 hPa | 0 mm | - | 103 W/m² | - |
| 1778086959 | 25.56° C | 84% | 1014.2 hPa | 0 mm | - | 83 W/m² | - |
| 1778086658 | 25.56° C | 83% | 1014.2 hPa | 0 mm | - | 78 W/m² | - |
| 1778086355 | 26.11° C | 82% | 1014.2 hPa | 0 mm | - | 60 W/m² | - |
| 1778086052 | 26.11° C | 81% | 1014.1 hPa | 0 mm | - | 121 W/m² | - |
| 1778085749 | 26.11° C | 83% | 1014.2 hPa | 0 mm | - | 190 W/m² | - |
| 1778085445 | 26.11° C | 83% | 1013.9 hPa | 0 mm | - | 248 W/m² | - |
| 1778085140 | 25.56° C | 84% | 1014.2 hPa | 0 mm | - | 272 W/m² | - |
| 1778084837 | 26.11° C | 85% | 1014.1 hPa | 0 mm | - | 204 W/m² | - |
| 1778084534 | 25.56° C | 84% | 1014.1 hPa | 0 mm | - | 216 W/m² | - |
* Rain latest hour (hover to see other rain measurements)
** Current wind speed in m/s (hover to see current wind gust speed)